Rome, OR

4:34 AM MDT on May 25, 2017 (GMT -0600)
Rome State

Weather History for KREO - March, 2014

Change the Weather History Date:

Thursday, March 27, 2014

  Actual Average Record
Temperature  
Mean Temperature 43 °F 42 °F  
Max Temperature 54 °F 56 °F 81 °F (2015)
Min Temperature 31 °F 27 °F 14 °F (1944)
Degree Days  
Heating Degree Days 22 23  
Month to date heating degree days 586 690  
Since 1 July heating degree days 5008 5424  
Cooling Degree Days 0 0  
Month to date cooling degree days 0 0  
Year to date cooling degree days 0 0  
Moisture  
Dew Point 26 °F    
Average Humidity 57    
Maximum Humidity 89    
Minimum Humidity 24    
Precipitation  
Precipitation 0.00 in 0.03 in 0.42 in (1983)
Month to date precipitation 0.24 0.83  
Year to date precipitation 0.99 2.24  
Sea Level Pressure  
Sea Level Pressure 29.82 in    
Wind  
Wind Speed 16 mph (SSW)    
Max Wind Speed 31 mph    
Max Gust Speed 39 mph    
T = Trace of Precipitation, MM = Missing Value Source: NWS Daily Summary

Daily Weather History Graph

Daily Weather History Graph

Search for Another Location

Airport or City:

Trip Planner

Search our weather history database for the weather conditions in past years. The results will help you decide how hot, cold, wet, or windy it might be!

Date:

Astronomy

Mar. 27, 2014 Rise Set
Actual Time 6:42 AM PDT 7:11 PM PDT
Civil Twilight 6:14 AM PDT 7:40 PM PDT
Nautical Twilight 5:40 AM PDT 8:13 PM PDT
Astronomical Twilight 5:06 AM PDT 8:48 PM PDT
Moon 4:41 AM PDT (3/27) 4:01 PM PDT (3/27)
Length of Visible Light 13h 26m
Length of Day
12h 29m
Waning Crescent, 12% of the Moon is Illuminated
Mar 27
Waning Crescent
Mar 30
New
Apr 7
First Quarter
Apr 15
Full
Apr 22
Last Quarter

Hourly Weather History & Observations

Time (PDT) Temp. Windchill Dew Point Humidity Pressure Visibility Wind Dir Wind Speed Gust Speed Precip Events Conditions
12:52 AM 35.1 °F 30.1 °F 30.9 °F 85% 29.67 in - South 5.8 mph - 0.01 in   Unknown
1:52 AM 33.1 °F 25.5 °F 30.9 °F 92% 29.68 in - SSE 9.2 mph - 0.01 in   Unknown
2:52 AM 34.0 °F 24.6 °F 30.9 °F 89% 29.68 in - South 13.8 mph - N/A   Unknown
3:52 AM 34.0 °F 26.6 °F 30.9 °F 89% 29.71 in - SSW 9.2 mph - N/A   Unknown
4:52 AM 34.0 °F 25.0 °F 30.0 °F 85% 29.72 in - SSW 12.7 mph - N/A   Unknown
5:52 AM 33.1 °F 21.9 °F 30.0 °F 89% 29.74 in - SSW 18.4 mph - N/A   Unknown
6:52 AM 32.0 °F 22.5 °F 28.9 °F 88% 29.77 in - South 12.7 mph - N/A   Unknown
7:52 AM 37.0 °F 28.5 °F 27.0 °F 67% 29.79 in - SSW 13.8 mph - N/A   Unknown
8:52 AM 39.0 °F 29.0 °F 27.0 °F 62% 29.81 in - SW 20.7 mph 27.6 mph N/A   Unknown
9:52 AM 43.0 °F 33.1 °F 27.0 °F 53% 29.82 in - SW 26.5 mph 31.1 mph N/A   Unknown
10:52 AM 46.9 °F - 26.1 °F 44% 29.83 in - SSW 20.7 mph 32.2 mph N/A   Unknown
11:52 AM 48.0 °F - 24.1 °F 39% 29.83 in - SW 26.5 mph 35.7 mph N/A   Unknown
12:52 PM 48.9 °F - 21.9 °F 35% 29.83 in - SW 23.0 mph 33.4 mph N/A   Unknown
1:52 PM 51.1 °F - 23.0 °F 33% 29.83 in - SW 28.8 mph 36.8 mph N/A   Unknown
2:52 PM 51.1 °F - 23.0 °F 33% 29.83 in - WSW 23.0 mph 32.2 mph N/A   Unknown
3:52 PM 52.0 °F - 21.0 °F 30% 29.82 in - WSW 27.6 mph 35.7 mph N/A   Unknown
4:52 PM 53.1 °F - 18.0 °F 25% 29.82 in - WSW 23.0 mph 29.9 mph N/A   Unknown
5:52 PM 48.9 °F - 21.0 °F 33% 29.86 in - West 23.0 mph 35.7 mph N/A   Unknown
6:52 PM 46.0 °F 41.4 °F 21.9 °F 39% 29.88 in - West 9.2 mph - N/A   Unknown
7:52 PM 44.1 °F 39.5 °F 23.0 °F 43% 29.91 in - WSW 8.1 mph - N/A   Unknown
8:52 PM 41.0 °F 35.2 °F 28.0 °F 60% 29.95 in - ENE 9.2 mph - N/A   Unknown
9:52 PM 39.9 °F 32.5 °F 30.0 °F 68% 29.96 in - East 12.7 mph - N/A   Unknown
10:52 PM 41.0 °F 35.2 °F 28.9 °F 62% 29.97 in - East 9.2 mph - N/A   Unknown
11:52 PM 35.1 °F 29.3 °F 25.0 °F 67% 30.00 in - SSW 6.9 mph - N/A   Unknown